[[{"header":{"parameterUnit":"m.s-1","parameterCategory":1,"la1":30.2991,"la2":30.254,"lo1":-89.0895,"lo2":-89.0444,"dy":0.0017,"dx":0.0017,"nx":28,"ny":28,"refTime":"2025-08-15T21:00:00:Z","depth":0,"parameterNumber":2,"parameterNumberName":"U-component_of_WINDS"},"data":[0,0,0,0,0,0,0,0,0,0,0,0,0,0,0,0,0,0,0,0,0,0,0,0,0,0,0,0,0,0,0,0,0,0,0,0,0,0,0,0,0,0,0,0,0,0,0,0,0,0,0,0,0,0,0,0,0,0,0.6816,0.6816,0,0.6839,0.6839,0.6839,0.6863,0.6864,0.6864,0.6864,0.6887,0.6888,0.6888,0,0,0,0,0,0,0,0,0,0,0,0,0,0.6794,0.6795,0.6816,0.6816,0.6817,0.6839,0.6839,0.6839,0.6863,0.6864,0.6864,0.6864,0.6887,0.6887,0.6888,0,0,0,0,0,0,0,0,0,0,0,0,0,0.6809,0.6795,0.6816,0.6831,0.6833,0.6839,0.6839,0.6839,0.6863,0.6864,0.6864,0.6865,0.6887,0.6887,0.6888,0.688,0,0,0.6889,0.6889,0,0,0,0,0,0,0,0,0.6808,0.681,0.6829,0.683,0.6832,0.6849,0.684,0.6853,0.6863,0.6852,0.6864,0.6865,0.6874,0.6876,0.6879,0.6881,0.6882,0.6889,0.689,0.689,0.689,0,0,0,0,0,0,0,0.6807,0.6809,0.6825,0.6829,0.6831,0.6837,0.684,0.6842,0.686,0.6853,0.6854,0.6857,0.6875,0.6878,0.6879,0.6883,0.6889,0.689,0.689,0.689,0.6882,0.6881,0,0,0,0,0,0,0.6804,0.6808,0.6824,0.6826,0.6821,0.6837,0.684,0.6843,0.686,0.6863,0.6856,0.6858,0.6877,0.6879,0.688,0.6873,0.689,0.689,0.689,0.6882,0.6882,0.6881,0,0,0,0,0,0,0.6803,0.6805,0.6823,0.6817,0.682,0.6837,0.684,0.6843,0.6846,0.6863,0.6866,0.6856,0.6878,0.688,0.688,0.6874,0.689,0.6891,0.6883,0.6882,0.6881,0.6858,0,0,0,0,0,0,0.6802,0.6805,0.6802,0.6817,0.682,0.6823,0.6839,0.6843,0.6847,0.6849,0.6863,0.6866,0.6878,0.688,0.6881,0.6875,0.6891,0.6883,0.6882,0.6882,0.6859,0.6856,0.6854,0,0,0,0,0,0.6802,0.6794,0.6801,0.6803,0.6817,0.6822,0.6824,0.6838,0.6846,0.6844,0.6854,0.6866,0.6875,0.688,0.6881,0.6875,0.6884,0.6883,0.6882,0.686,0.6857,0.6854,0,0,0,0,0,0,0.6777,0.6796,0.6804,0.6801,0.681,0.6826,0.6823,0.6834,0.684,0.6842,0.6859,0.6862,0.6861,0.6869,0.6873,0.6869,0.6881,0.688,0.6864,0.6861,0.6859,0.6856,0.6891,0,0,0,0,0,0.6771,0.6773,0.679,0.6786,0.679,0.6806,0.6809,0.6819,0.6829,0.6832,0.6843,0.6852,0.6857,0.686,0.6865,0.6861,0.6865,0.6858,0.6855,0.6853,0.6852,0.6851,0.6848,0.6878,0.6878,0.6878,0,0,0.6759,0.677,0.677,0.6781,0.6789,0.6792,0.6809,0.6811,0.6813,0.6833,0.6834,0.6842,0.6854,0.6852,0.6852,0.6858,0.6845,0.6852,0.685,0.685,0.6849,0.6847,0.6844,0.6877,0.6877,0.6877,0,0,0.6738,0.6746,0.6744,0.6752,0.6764,0.6775,0.6774,0.6789,0.6796,0.6797,0.6813,0.6816,0.6824,0.6831,0.6836,0.682,0.6831,0.6821,0.6807,0.6806,0.6804,0.6802,0.6796,0.6794,0.682,0.682,0.682,0,0.6721,0.6725,0.6741,0.6742,0.6747,0.6766,0.6764,0.6771,0.6784,0.6787,0.6794,0.6805,0.6814,0.6815,0.6811,0.6814,0.6814,0.6819,0.6803,0.6801,0.6799,0.6794,0.6792,0.6819,0.6819,0.6819,0.6819,0,0.6704,0.6707,0.6704,0.6716,0.6721,0.672,0.6737,0.674,0.675,0.676,0.6762,0.6774,0.6782,0.6784,0.6794,0.6786,0.679,0.68,0.6811,0.6795,0.679,0.6788,0.6817,0.6818,0.6818,0.6818,0,0,0.6666,0.6689,0.6687,0.6694,0.6709,0.6712,0.6713,0.6721,0.6723,0.6732,0.6734,0.6741,0.6751,0.6756,0.6767,0.6766,0.6753,0.6777,0.6777,0.6771,0.6746,0.6738,0.6735,0.6761,0.6761,0.676,0.6745,0,0.6648,0.665,0.6665,0.6663,0.6667,0.6685,0.6686,0.6696,0.6706,0.6711,0.6722,0.6727,0.6739,0.6743,0.6743,0.6755,0.6748,0.6756,0.6762,0.6762,0.6758,0.6733,0.6724,0.6709,0.6743,0.6743,0.6743,0,0.6626,0.6634,0.6632,0.6648,0.665,0.6651,0.666,0.6665,0.6677,0.6684,0.6691,0.6704,0.6707,0.6719,0.6723,0.6728,0.6732,0.6738,0.6738,0.6738,0.6751,0.6732,0.6704,0.6701,0.674,0.674,0.674,0,0.6598,0.6608,0.6609,0.6614,0.6633,0.6633,0.6641,0.6654,0.6658,0.6667,0.667,0.6679,0.6684,0.6691,0.6706,0.6713,0.6708,0.6721,0.6715,0.6714,0.6712,0.6711,0.6683,0.6715,0.6715,0.6715,0.6715,0,0.6575,0.6573,0.6597,0.6597,0.6596,0.6614,0.6613,0.6623,0.6634,0.6637,0.6654,0.6657,0.6677,0.6682,0.6694,0.6696,0.6698,0.6704,0.6707,0.6702,0.6701,0.6704,0.6705,0.6715,0.6715,0.6715,0.6715,0,0.6543,0.6559,0.6561,0.6579,0.6584,0.6582,0.6598,0.66,0.6612,0.6615,0.6617,0.6636,0.6642,0.6659,0.667,0.6678,0.6676,0.6683,0.6672,0.6674,0.6666,0.6666,0.6638,0.6635,0.667,0.6669,0.6669,0,0.6527,0.6526,0.6545,0.6548,0.6555,0.656,0.6565,0.6584,0.6588,0.6603,0.6602,0.6611,0.6618,0.6628,0.6643,0.6652,0.6658,0.6648,0.6659,0.6654,0.6657,0.6657,0.6657,0.6645,0.6644,0.6644,0.6643,0,0.6496,0.6504,0.6511,0.652,0.6526,0.6534,0.6544,0.6546,0.6567,0.6571,0.6578,0.6584,0.6596,0.6604,0.6616,0.6624,0.6637,0.664,0.6639,0.6633,0.6627,0.663,0.6664,0.664,0.664,0.6641,0.6641,0.6641,0.6471,0.6471,0.6485,0.6492,0.6501,0.651,0.6512,0.6525,0.6531,0.6542,0.6553,0.656,0.6573,0.659,0.6598,0.6604,0.661,0.6608,0.6608,0.6607,0.6605,0.6627,0.6606,0.6606,0.6606,0.6606,0.6606,0,0.6441,0.6451,0.6457,0.647,0.6476,0.6489,0.65,0.6504,0.6509,0.6521,0.6528,0.6537,0.6546,0.6562,0.6572,0.6573,0.6579,0.6575,0.6574,0.6576,0.6598,0.6598,0.657,0.657,0.657,0.657,0.657,0.657,0.6426,0.6427,0.6437,0.6444,0.6454,0.6461,0.6466,0.6475,0.6484,0.6493,0.65,0.6511,0.6525,0.6536,0.6544,0.6549,0.6552,0.6545,0.6552,0.6571,0.6575,0.6578,0.6578,0.6546,0.6546,0.6529,0.6529,0.6529]},{"header":{"parameterUnit":"m.s-1","parameterCategory":1,"la1":30.2991,"la2":30.254,"lo1":-89.0895,"lo2":-89.0444,"dy":0.0017,"dx":0.0017,"nx":28,"ny":28,"refTime":"2025-08-15T21:00:00:Z","depth":0,"parameterNumber":3,"parameterNumberName":"V-component_of_WINDS"},"data":[0,0,0,0,0,0,0,0,0,0,0,0,0,0,0,0,0,0,0,0,0,0,0,0,0,0,0,0,0,0,0,0,0,0,0,0,0,0,0,0,0,0,0,0,0,0,0,0,0,0,0,0,0,0,0,0,0,0,-1.2392,-1.2393,0,-1.2473,-1.2473,-1.2474,-1.251,-1.251,-1.251,-1.251,-1.2591,-1.2593,-1.2595,0,0,0,0,0,0,0,0,0,0,0,0,0,-1.227,-1.2272,-1.2392,-1.2393,-1.2394,-1.2472,-1.2473,-1.2475,-1.251,-1.251,-1.251,-1.251,-1.259,-1.2593,-1.2595,0,0,0,0,0,0,0,0,0,0,0,0,0,-1.2334,-1.2273,-1.2392,-1.2421,-1.2425,-1.2472,-1.2474,-1.2475,-1.251,-1.251,-1.251,-1.251,-1.2589,-1.2592,-1.2596,-1.2619,0,0,-1.2606,-1.2607,0,0,0,0,0,0,0,0,-1.233,-1.2338,-1.2416,-1.242,-1.2423,-1.2481,-1.246,-1.2523,-1.251,-1.2478,-1.251,-1.251,-1.2554,-1.256,-1.2576,-1.2623,-1.2626,-1.2606,-1.2608,-1.261,-1.2611,0,0,0,0,0,0,0,-1.2326,-1.2335,-1.2424,-1.2417,-1.2422,-1.2431,-1.244,-1.2472,-1.2516,-1.2481,-1.2483,-1.2493,-1.2556,-1.2572,-1.2578,-1.2627,-1.2606,-1.2609,-1.2611,-1.2612,-1.27,-1.2701,0,0,0,0,0,0,-1.2316,-1.2331,-1.2421,-1.2426,-1.2376,-1.2433,-1.2443,-1.2463,-1.2516,-1.2524,-1.2493,-1.2494,-1.2567,-1.2574,-1.2581,-1.2614,-1.261,-1.2613,-1.2615,-1.27,-1.2701,-1.2701,0,0,0,0,0,0,-1.2314,-1.2324,-1.2418,-1.238,-1.2392,-1.2435,-1.2457,-1.2464,-1.2481,-1.2525,-1.2533,-1.2501,-1.2567,-1.2576,-1.261,-1.2617,-1.2614,-1.2617,-1.27,-1.27,-1.2701,-1.2678,0,0,0,0,0,0,-1.231,-1.2323,-1.2332,-1.238,-1.2394,-1.2446,-1.2458,-1.2466,-1.2487,-1.2489,-1.2535,-1.2542,-1.2568,-1.2605,-1.2613,-1.2622,-1.262,-1.2699,-1.27,-1.2701,-1.2679,-1.2678,-1.2677,0,0,0,0,0,-1.2306,-1.2322,-1.2332,-1.2343,-1.2407,-1.2446,-1.2454,-1.2484,-1.2487,-1.2497,-1.2526,-1.2541,-1.2615,-1.2608,-1.2618,-1.2627,-1.2699,-1.27,-1.2701,-1.2679,-1.2678,-1.2677,0,0,0,0,0,0,-1.2273,-1.2328,-1.2341,-1.2373,-1.2405,-1.2452,-1.2465,-1.2482,-1.2513,-1.2514,-1.2548,-1.2558,-1.259,-1.2612,-1.2603,-1.2654,-1.2658,-1.2661,-1.2638,-1.2638,-1.2637,-1.2632,-1.2623,0,0,0,0,0,-1.2269,-1.2297,-1.2344,-1.2368,-1.2383,-1.2421,-1.244,-1.246,-1.2494,-1.2507,-1.2538,-1.257,-1.2601,-1.2621,-1.2651,-1.2682,-1.2693,-1.2693,-1.2693,-1.2692,-1.2694,-1.2714,-1.2715,-1.2703,-1.2703,-1.2703,0,0,-1.2262,-1.2296,-1.2311,-1.2362,-1.2389,-1.2417,-1.2432,-1.2461,-1.2483,-1.2511,-1.2546,-1.257,-1.2608,-1.2641,-1.2657,-1.2661,-1.27,-1.2693,-1.2692,-1.2695,-1.2715,-1.2716,-1.2717,-1.2704,-1.2704,-1.2704,0,0,-1.2265,-1.2292,-1.2316,-1.2344,-1.2385,-1.2411,-1.2416,-1.2462,-1.2479,-1.2515,-1.2538,-1.2564,-1.2615,-1.2643,-1.2663,-1.2678,-1.2694,-1.2687,-1.2684,-1.2703,-1.2704,-1.2705,-1.2712,-1.2714,-1.2689,-1.2689,-1.2689,0,-1.2251,-1.2294,-1.2326,-1.2355,-1.2377,-1.2406,-1.2431,-1.2455,-1.2504,-1.2519,-1.2522,-1.259,-1.2617,-1.2658,-1.2662,-1.2677,-1.2686,-1.2682,-1.2701,-1.2703,-1.2704,-1.2711,-1.2714,-1.2688,-1.2688,-1.2688,-1.2688,0,-1.2276,-1.2306,-1.2321,-1.2369,-1.2393,-1.2419,-1.2455,-1.2475,-1.2494,-1.252,-1.2556,-1.2591,-1.263,-1.2641,-1.2658,-1.2685,-1.2686,-1.2695,-1.27,-1.2704,-1.2711,-1.2714,-1.2686,-1.2687,-1.2687,-1.2687,0,0,-1.2259,-1.2326,-1.2331,-1.2354,-1.2403,-1.2427,-1.2455,-1.2494,-1.2512,-1.2545,-1.257,-1.2614,-1.2624,-1.2647,-1.2668,-1.2685,-1.2697,-1.2692,-1.2694,-1.2693,-1.273,-1.2724,-1.2727,-1.2708,-1.2708,-1.2709,-1.2728,0,-1.2269,-1.2321,-1.2352,-1.2392,-1.2422,-1.245,-1.2475,-1.2508,-1.2533,-1.2562,-1.2589,-1.2621,-1.263,-1.2644,-1.2662,-1.2692,-1.2705,-1.2691,-1.2732,-1.2733,-1.2723,-1.273,-1.2724,-1.274,-1.2731,-1.2731,-1.2731,0,-1.2287,-1.2321,-1.2365,-1.2413,-1.2426,-1.2448,-1.2488,-1.2514,-1.2553,-1.257,-1.2597,-1.2619,-1.2651,-1.2653,-1.2698,-1.2688,-1.2707,-1.2724,-1.2725,-1.2731,-1.2733,-1.2737,-1.2745,-1.2748,-1.2736,-1.2735,-1.2735,0,-1.2272,-1.2329,-1.2363,-1.2382,-1.2438,-1.2453,-1.2477,-1.2515,-1.2538,-1.2572,-1.2587,-1.2625,-1.2645,-1.2674,-1.2706,-1.2704,-1.2748,-1.2753,-1.2764,-1.2764,-1.2773,-1.2772,-1.2785,-1.2783,-1.2783,-1.2783,-1.2783,0,-1.228,-1.2306,-1.2358,-1.2378,-1.2409,-1.2444,-1.2473,-1.2499,-1.2534,-1.2561,-1.2587,-1.2612,-1.2652,-1.2682,-1.2706,-1.2741,-1.275,-1.2765,-1.2772,-1.2764,-1.2762,-1.2777,-1.2777,-1.2783,-1.2783,-1.2783,-1.2783,0,-1.2269,-1.2304,-1.2343,-1.2394,-1.2408,-1.2428,-1.2471,-1.2493,-1.252,-1.2554,-1.2564,-1.2607,-1.2644,-1.2678,-1.2726,-1.2743,-1.2779,-1.2786,-1.2766,-1.277,-1.278,-1.2779,-1.2804,-1.281,-1.2803,-1.2803,-1.2803,0,-1.2272,-1.2293,-1.2347,-1.2368,-1.2391,-1.2424,-1.2448,-1.2483,-1.2507,-1.2554,-1.257,-1.2609,-1.2643,-1.27,-1.2735,-1.2773,-1.2783,-1.2789,-1.2789,-1.2781,-1.2785,-1.2784,-1.2787,-1.2789,-1.2789,-1.2789,-1.2788,0,-1.2275,-1.2292,-1.2326,-1.2366,-1.2394,-1.2427,-1.2461,-1.2476,-1.2519,-1.2544,-1.2583,-1.2609,-1.266,-1.2699,-1.2741,-1.2766,-1.2785,-1.2788,-1.2793,-1.2786,-1.2774,-1.2782,-1.2766,-1.2788,-1.2788,-1.2788,-1.2788,-1.2788,-1.2272,-1.2293,-1.2335,-1.2372,-1.2402,-1.2434,-1.2458,-1.2489,-1.2522,-1.2567,-1.2586,-1.2626,-1.2665,-1.2725,-1.2749,-1.2781,-1.2785,-1.2792,-1.2794,-1.2795,-1.2795,-1.2768,-1.2789,-1.2789,-1.2789,-1.2789,-1.2789,0,-1.2278,-1.2307,-1.2341,-1.2389,-1.2418,-1.2434,-1.2473,-1.2497,-1.2532,-1.2568,-1.2601,-1.2646,-1.2685,-1.2724,-1.2765,-1.2783,-1.2793,-1.2792,-1.2792,-1.2798,-1.2788,-1.278,-1.2784,-1.2784,-1.2784,-1.2784,-1.2784,-1.2784,-1.2285,-1.2322,-1.2344,-1.2397,-1.2425,-1.2465,-1.2487,-1.2517,-1.2546,-1.2596,-1.2628,-1.2654,-1.2692,-1.2736,-1.2772,-1.2783,-1.2797,-1.2795,-1.2808,-1.2798,-1.2798,-1.2798,-1.2791,-1.2798,-1.2798,-1.2816,-1.2816,-1.2816]}]]